Simultaneous Nadir Overpasses (SNOs) Predictions

Prediction of SNOs between AQUA and METOP-B Satellite Orbit:

Table of predicted SNOs for the next 14.0 days since TLE Epoch: 12/28/2012
Index Date (AQUA) Time (AQUA) Lat,Lon (AQUA) SZA (AQUA ) Date (METOP-B) Time (METOP-B) Lat,Lon (METOP-B) SZA (METOP-B ) Distance(km) Time Diff (sec)
1 12/30/2012 19:32:09 -73.76, 61.25 83.15 12/30/2012 19:31:48 -73.77, 61.36 83.14 3.61 21
2 12/30/2012 20:21:37 73.79,-131.18 96.88 12/30/2012 20:22:27 73.79,-131.25 96.89 2.39 50
3 01/02/2013 14:16:50 73.36, -39.11 96.22 01/02/2013 14:15:40 73.35, -40.54 96.25 45.61 70
4 01/02/2013 15:06:23 -73.75, 127.72 83.38 01/02/2013 15:06:14 -73.75, 127.72 83.38 0.36 9
5 01/02/2013 15:55:52 73.83, -64.84 96.71 01/02/2013 15:56:52 73.83, -64.76 96.69 2.40 60
6 01/05/2013 09:51:09 73.70, 26.63 96.29 01/05/2013 09:49:59 73.68, 26.64 96.28 1.75 70
7 01/05/2013 10:40:36 -73.76,-165.87 83.65 01/05/2013 10:40:39 -73.78,-165.80 83.64 3.08 3
8 01/05/2013 11:30:05 73.85, 1.57 96.44 01/05/2013 11:31:17 73.86, 1.73 96.44 5.09 72
9 01/08/2013 05:25:19 73.69, 93.11 95.93 01/08/2013 05:24:23 73.72, 93.13 95.97 3.32 56
10 01/08/2013 06:14:46 -73.75, -99.39 84.01 01/08/2013 06:15:04 -73.77, -99.43 83.99 2.11 18
11 01/08/2013 07:04:25 74.37, 66.85 96.65 01/08/2013 07:05:32 74.34, 69.33 96.54 74.44 67
12 01/11/2013 00:59:29 73.71, 159.53 95.55 01/11/2013 00:58:49 73.71, 159.50 95.56 0.95 40
13 01/11/2013 01:48:56 -73.77, -32.96 84.39 01/11/2013 01:49:29 -73.80, -32.95 84.37 3.56 33




NCC Satellite Simultaneous Nadir Overpasses (SNOs) Prediction Service
